Location: Casteau
(50.5142°N, 4.0161°E)
Time: 17:19:30
(UTC+00:00)

Transit 2A - All Passes

Search period start: 28 July 2021 00:00
Search period end: 07 August 2021 00:00
Orbit: 598 x 960 km, 66.7° (Epoch: 27 July)

Date Brightness Start Highest point End Pass type
(mag) Time Alt. Az. Time Alt. Az. Time Alt. Az.
28 Jul - 05:51:17 10° SE 05:53:48 15° ESE 05:56:24 10° ENE daylight
28 Jul - 07:31:47 10° SW 07:36:12 81° NW 07:40:58 10° NE daylight
28 Jul - 09:16:40 10° WNW 09:20:10 21° NNW 09:23:53 10° NNE daylight
28 Jul - 11:03:11 10° NNW 11:05:17 13° N 11:07:28 10° NNE daylight
28 Jul - 12:46:58 10° NNW 12:50:32 19° NNE 12:54:19 10° ENE daylight
28 Jul - 14:29:39 10° NNW 14:34:48 53° NE 14:40:29 10° ESE daylight
28 Jul - 16:13:01 10° NW 16:17:55 35° WSW 16:23:12 10° S daylight
29 Jul - 06:57:39 10° SSW 07:02:01 72° ESE 07:06:45 10° NE daylight
29 Jul - 08:41:53 10° W 08:45:42 25° NNW 08:49:46 10° NNE daylight
29 Jul - 10:28:25 10° NW 10:30:40 13° N 10:32:59 10° NNE daylight
29 Jul - 12:12:48 10° NNW 12:15:59 16° NNE 12:19:19 10° ENE daylight
29 Jul - 13:55:31 10° NNW 14:00:29 41° NE 14:05:56 10° ESE daylight
29 Jul - 15:38:38 10° NW 15:43:49 48° WSW 15:49:27 10° S daylight
30 Jul - 06:23:40 10° SSW 06:27:54 49° ESE 06:32:27 10° NE daylight
30 Jul - 08:07:13 10° WSW 08:11:16 32° NW 08:15:38 10° NNE daylight
30 Jul - 09:53:33 10° NW 09:56:02 14° NNW 09:58:39 10° NNE daylight
30 Jul - 11:38:36 10° NNW 11:41:24 15° NNE 11:44:20 10° NE daylight
30 Jul - 13:21:24 10° NNW 13:26:08 33° NE 13:31:17 10° ESE daylight
30 Jul - 15:04:21 10° NW 15:09:40 65° WSW 15:15:31 10° SSE daylight
30 Jul - 16:49:43 10° W 16:52:03 13° WSW 16:54:27 10° SW daylight
31 Jul - 05:49:52 10° S 05:53:50 34° ESE 05:58:03 10° NE daylight
31 Jul - 07:32:39 10° WSW 07:36:54 41° NW 07:41:31 10° NNE daylight
31 Jul - 09:18:38 10° NW 09:21:27 15° NNW 09:24:24 10° NNE daylight
31 Jul - 11:04:18 10° NNW 11:06:47 13° N 11:09:23 10° NE daylight
31 Jul - 12:47:17 10° NNW 12:51:43 27° NE 12:56:30 10° E daylight
31 Jul - 14:30:07 10° NW 14:35:29 86° SW 14:41:25 10° SSE daylight
31 Jul - 16:14:27 10° WNW 16:18:06 18° WSW 16:21:57 10° SSW daylight
01 Aug - 05:16:19 10° SSE 05:19:50 24° ESE 05:23:32 10° ENE daylight
01 Aug - 06:58:12 10° SW 07:02:35 55° NW 07:07:21 10° NNE daylight
01 Aug - 08:43:44 10° WNW 08:46:54 18° NNW 08:50:14 10° NNE daylight
01 Aug - 10:29:53 10° NNW 10:32:10 13° N 10:34:31 10° NNE daylight
01 Aug - 12:13:10 10° NNW 12:17:15 23° NNE 12:21:39 10° E daylight
01 Aug - 13:55:55 10° NW 14:01:16 73° NE 14:07:10 10° SE daylight
01 Aug - 15:39:42 10° WNW 15:44:06 25° WSW 15:48:48 10° SSW daylight
02 Aug - 04:43:07 10° SE 04:45:53 16° ESE 04:48:45 10° ENE daylight
02 Aug - 06:23:54 10° SW 06:28:19 77° NW 06:33:10 10° NE daylight
02 Aug - 08:08:52 10° WNW 08:12:22 21° NNW 08:16:05 10° NNE daylight
02 Aug - 09:55:18 10° NNW 09:57:31 13° N 09:59:49 10° NNE daylight
02 Aug - 11:39:02 10° NNW 11:42:46 19° NNE 11:46:43 10° ENE daylight
02 Aug - 13:21:45 10° NNW 13:27:00 56° NE 13:32:46 10° SE daylight
02 Aug - 15:05:11 10° NW 15:10:04 34° WSW 15:15:20 10° S daylight
03 Aug - 04:10:49 10° ESE 04:11:59 11° ESE 04:13:11 10° E daylight
03 Aug - 05:49:43 10° SSW 05:54:08 77° SE 05:58:56 10° NE daylight
03 Aug - 07:34:05 10° W 07:37:52 25° NNW 07:41:57 10° NNE daylight
03 Aug - 09:20:35 10° NW 09:22:53 13° N 09:25:18 10° NNE daylight
03 Aug - 11:04:52 10° NNW 11:08:13 17° NNE 11:11:44 10° ENE daylight
03 Aug - 12:47:37 10° NNW 12:52:41 44° NE 12:58:15 10° ESE daylight
03 Aug - 14:30:47 10° NW 14:35:58 45° WSW 14:41:37 10° S daylight
04 Aug - 05:15:42 10° SSW 05:20:00 53° ESE 05:24:39 10° NE daylight
04 Aug - 06:59:23 10° W 07:03:27 31° NW 07:07:50 10° NNE daylight
04 Aug - 08:45:44 10° NW 08:48:16 14° N 08:50:55 10° NNE daylight
04 Aug - 10:30:39 10° NNW 10:33:38 15° NNE 10:36:45 10° NE daylight
04 Aug - 12:13:29 10° NNW 12:18:20 35° NE 12:23:36 10° ESE daylight
04 Aug - 13:56:29 10° NW 14:01:51 61° WSW 14:07:43 10° SSE daylight
04 Aug - 15:42:08 10° W 15:44:10 12° WSW 15:46:15 10° SW daylight
05 Aug - 04:41:52 10° S 04:45:56 37° ESE 04:50:17 10° NE daylight
05 Aug - 06:24:48 10° WSW 06:29:03 39° NW 06:33:41 10° NNE daylight
05 Aug - 08:10:50 10° NW 08:13:40 15° NNW 08:16:38 10° NNE daylight
05 Aug - 09:56:23 10° NNW 09:59:01 14° N 10:01:48 10° NE daylight
05 Aug - 11:39:22 10° NNW 11:43:56 29° NE 11:48:52 10° E daylight
05 Aug - 13:22:14 10° NW 13:27:40 82° SW 13:33:39 10° SSE daylight
05 Aug - 15:06:42 10° WNW 15:10:15 17° WSW 15:13:56 10° SW daylight
06 Aug - 04:08:16 10° SSE 04:11:55 26° ESE 04:15:47 10° ENE daylight
06 Aug - 05:50:20 10° WSW 05:54:44 52° NW 05:59:32 10° NNE daylight
06 Aug - 07:35:56 10° WNW 07:39:06 17° NNW 07:42:27 10° NNE daylight
06 Aug - 09:21:59 10° NNW 09:24:24 13° N 09:26:55 10° NE daylight
06 Aug - 11:05:14 10° NNW 11:09:29 24° NNE 11:14:02 10° E daylight
06 Aug - 12:48:01 10° NW 12:53:27 77° NE 12:59:25 10° SE daylight
06 Aug - 14:31:54 10° WNW 14:36:15 24° WSW 14:40:53 10° SSW daylight
